Вернуться в каталог

COSMOS 2251 DEB

АктивенLEO
NORAD 34273·DEBRIS·🇷🇺 Russia

Запущен Jun 16, 1993 с Plesetsk Cosmodrome

Loading…

Ближайшие Пролёты (ближайшие 24 часа)

TLE

СвежийSource: Space-Track

Эпоха: Sep 13, 2026, 20:16 UTC

1 34273U 93036LT  26256.84495625  .00002041  00000-0  40137-3 0  9999
2 34273  74.0328 280.4363 0016243 322.5323  96.0516 14.63216904926434

Отслеживайте COSMOS 2251 DEB в реальном времени с AllMySat

Download on the App Store